| time (UTC) | temp C | wind direction | speed KPH | gust KPH | rain 1hr cm | rain 24hr cm | rain mn cm | humidity % | barometer mb |
| 20260506124027 | 12 | 35 | 4.8 | 17.7 | 0.00 | 0.00 | 0.00 | 77 | 1014.4 |
| 20260506123529 | 12 | 58 | 1.6 | 19.3 | 0.00 | 0.00 | 0.00 | 78 | 1014.2 |
| 20260506123038 | 12 | 41 | 6.4 | 19.3 | 0.00 | 0.00 | 0.00 | 77 | 1013.9 |
| 20260506122527 | 12 | 60 | 6.4 | 19.3 | 0.00 | 0.00 | 0.00 | 77 | 1013.9 |
| 20260506122026 | 12 | 51 | 6.4 | 20.9 | 0.00 | 0.00 | 0.00 | 77 | 1014.1 |
| 20260506121546 | 12 | 49 | 8.0 | 20.9 | 0.00 | 0.00 | 0.00 | 77 | 1014.1 |
| 20260506121030 | 12 | 30 | 1.6 | 19.3 | 0.00 | 0.00 | 0.00 | 77 | 1013.9 |
| 20260506120529 | 12 | 51 | 4.8 | 20.9 | 0.00 | 0.00 | 0.00 | 77 | 1014.0 |
| 20260506120055 | 12 | 53 | 4.8 | 20.9 | 0.00 | 0.00 | 0.00 | 76 | 1014.1 |
| 20260506115530 | 12 | 41 | 6.4 | 20.9 | 0.00 | 0.00 | 0.00 | 76 | 1013.9 |
| 20260506115030 | 12 | 40 | 8.0 | 20.9 | 0.00 | 0.00 | 0.00 | 76 | 1013.9 |
| 20260506114553 | 12 | 29 | 6.4 | 17.7 | 0.00 | 0.00 | 0.00 | 75 | 1013.5 |
| 20260506114029 | 13 | 27 | 8.0 | 17.7 | 0.00 | 0.00 | 0.00 | 75 | 1013.6 |
| 20260506113529 | 13 | 63 | 3.2 | 17.7 | 0.00 | 0.00 | 0.00 | 75 | 1013.5 |
| 20260506113042 | 13 | 45 | 6.4 | 17.7 | 0.00 | 0.00 | 0.00 | 74 | 1013.2 |
| 20260506112531 | 13 | 40 | 6.4 | 17.7 | 0.00 | 0.00 | 0.00 | 74 | 1013.1 |
| 20260506112030 | 13 | 34 | 8.0 | 16.1 | 0.00 | 0.00 | 0.00 | 73 | 1013.2 |
| 20260506111542 | 13 | 25 | 4.8 | 14.5 | 0.00 | 0.00 | 0.00 | 73 | 1013.4 |
| 20260506111026 | 13 | 329 | 6.4 | 17.7 | 0.00 | 0.00 | 0.00 | 73 | 1013.1 |
| 20260506110530 | 13 | 101 | 4.8 | 17.7 | 0.00 | 0.00 | 0.00 | 73 | 1013.0 |
| 20260506110038 | 13 | 42 | 8.0 | 19.3 | 0.00 | 0.00 | 0.00 | 73 | 1012.8 |
| 20260506105527 | 13 | 49 | 8.0 | 19.3 | 0.00 | 0.00 | 0.00 | 73 | 1012.9 |
| 20260506105026 | 13 | 352 | 4.8 | 12.9 | 0.00 | 0.00 | 0.00 | 73 | 1012.7 |
| 20260506104538 | 13 | 41 | 3.2 | 12.9 | 0.00 | 0.00 | 0.00 | 73 | 1012.7 |
| 20260506104028 | 13 | 51 | 3.2 | 12.9 | 0.00 | 0.00 | 0.00 | 73 | 1012.5 |
| 20260506103527 | 13 | 49 | 4.8 | 16.1 | 0.00 | 0.00 | 0.00 | 73 | 1012.4 |
| 20260506103044 | 13 | 34 | 4.8 | 16.1 | 0.00 | 0.00 | 0.00 | 73 | 1012.3 |
| 20260506102530 | 13 | 2 | 8.0 | 14.5 | 0.00 | 0.00 | 0.00 | 72 | 1012.2 |
| 20260506102031 | 13 | 11 | 4.8 | 16.1 | 0.00 | 0.00 | 0.00 | 72 | 1012.0 |
| 20260506101544 | 13 | 359 | 3.2 | 16.1 | 0.00 | 0.00 | 0.00 | 72 | 1012.1 |
| 20260506101029 | 13 | 45 | 6.4 | 16.1 | 0.00 | 0.00 | 0.00 | 72 | 1012.1 |
| 20260506100527 | 13 | 53 | 4.8 | 16.1 | 0.00 | 0.00 | 0.00 | 72 | 1011.9 |
| 20260506100045 | 13 | 13 | 6.4 | 14.5 | 0.00 | 0.00 | 0.00 | 72 | 1011.8 |
| 20260506095527 | 13 | 61 | 1.6 | 12.9 | 0.00 | 0.00 | 0.00 | 72 | 1011.8 |
| 20260506095029 | 13 | 33 | 4.8 | 12.9 | 0.00 | 0.00 | 0.00 | 71 | 1011.8 |
| 20260506094559 | 14 | 19 | 3.2 | 17.7 | 0.00 | 0.00 | 0.00 | 71 | 1011.9 |
| 20260506094027 | 14 | 0 | 0.0 | 17.7 | 0.00 | 0.00 | 0.00 | 71 | 1011.5 |
| 20260506093527 | 14 | 60 | 4.8 | 17.7 | 0.00 | 0.00 | 0.00 | 71 | 1011.5 |
| 20260506093038 | 14 | 38 | 4.8 | 14.5 | 0.00 | 0.00 | 0.00 | 71 | 1011.6 |
| 20260506092527 | 14 | 341 | 1.6 | 14.5 | 0.00 | 0.00 | 0.00 | 72 | 1011.5 |
| 20260506092030 | 14 | 9 | 1.6 | 12.9 | 0.00 | 0.00 | 0.00 | 72 | 1011.4 |
| 20260506091538 | 14 | 50 | 4.8 | 12.9 | 0.00 | 0.00 | 0.00 | 72 | 1011.4 |
| 20260506091027 | 14 | 50 | 3.2 | 11.3 | 0.00 | 0.00 | 0.00 | 72 | 1011.6 |
| 20260506090526 | 14 | 0 | 0.0 | 11.3 | 0.00 | 0.00 | 0.00 | 72 | 1011.4 |
| 20260506090043 | 14 | 314 | 1.6 | 11.3 | 0.00 | 0.00 | 0.00 | 72 | 1011.3 |
| 20260506085531 | 14 | 37 | 4.8 | 11.3 | 0.00 | 0.00 | 0.00 | 72 | 1011.2 |
| 20260506085030 | 15 | 338 | 3.2 | 11.3 | 0.00 | 0.00 | 0.00 | 72 | 1011.2 |
| 20260506084546 | 15 | 4 | 4.8 | 11.3 | 0.00 | 0.00 | 0.00 | 71 | 1011.2 |
| 20260506084031 | 15 | 45 | 3.2 | 11.3 | 0.00 | 0.00 | 0.00 | 72 | 1011.0 |
| 20260506083531 | 15 | 20 | 1.6 | 9.7 | 0.00 | 0.00 | 0.00 | 72 | 1011.0 |
| 20260506083043 | 15 | 13 | 1.6 | 9.7 | 0.00 | 0.00 | 0.00 | 72 | 1011.0 |
| 20260506082527 | 15 | 313 | 1.6 | 9.7 | 0.00 | 0.00 | 0.00 | 72 | 1011.0 |
| 20260506082031 | 15 | 345 | 0.0 | 8.0 | 0.00 | 0.00 | 0.00 | 72 | 1011.1 |
| 20260506081540 | 15 | 0 | 3.2 | 8.0 | 0.00 | 0.00 | 0.00 | 72 | 1011.0 |
| 20260506081027 | 15 | 0 | 0.0 | 8.0 | 0.00 | 0.00 | 0.00 | 72 | 1011.0 |
| 20260506080531 | 15 | 0 | 0.0 | 0.0 | 0.00 | 0.00 | 0.00 | 72 | 1010.7 |
| 20260506073527 | 15 | 48 | 3.2 | 12.9 | 0.00 | 0.00 | 0.00 | 73 | 1010.6 |
| 20260506073047 | 15 | 46 | 4.8 | 19.3 | 0.00 | 0.00 | 0.00 | 73 | 1010.7 |
| 20260506072527 | 15 | 358 | 6.4 | 19.3 | 0.00 | 0.00 | 0.00 | 73 | 1010.7 |
| 20260506072030 | 15 | 14 | 6.4 | 22.5 | 0.00 | 0.00 | 0.00 | 73 | 1010.7 |
| 20260506071544 | 15 | 20 | 6.4 | 22.5 | 0.00 | 0.00 | 0.00 | 73 | 1010.7 |
| 20260506071026 | 15 | 338 | 8.0 | 16.1 | 0.00 | 0.00 | 0.00 | 73 | 1011.0 |
| 20260506070530 | 15 | 55 | 8.0 | 24.1 | 0.00 | 0.00 | 0.00 | 73 | 1010.8 |
| 20260506062027 | 16 | 40 | 3.2 | 16.1 | 0.00 | 0.00 | 0.00 | 74 | 1010.7 |
| 20260506061545 | 16 | 34 | 4.8 | 16.1 | 0.00 | 0.00 | 0.00 | 74 | 1010.7 |
| 20260506061030 | 16 | 55 | 6.4 | 16.1 | 0.00 | 0.00 | 0.00 | 73 | 1010.7 |
| 20260506060526 | 16 | 314 | 6.4 | 14.5 | 0.00 | 0.00 | 0.00 | 73 | 1010.7 |
| 20260506051027 | 17 | 46 | 3.2 | 16.1 | 0.00 | 0.00 | 0.00 | 76 | 1010.4 |
| 20260506050531 | 17 | 32 | 4.8 | 14.5 | 0.00 | 0.00 | 0.00 | 76 | 1010.5 |
| 20260506045027 | 17 | 55 | 8.0 | 22.5 | 0.00 | 0.00 | 0.00 | 75 | 1010.6 |
| 20260506044550 | 17 | 312 | 6.4 | 22.5 | 0.00 | 0.00 | 0.00 | 75 | 1010.6 |
| 20260506044026 | 17 | 39 | 6.4 | 22.5 | 0.00 | 0.00 | 0.00 | 75 | 1010.5 |
| 20260506043529 | 17 | 332 | 6.4 | 19.3 | 0.00 | 0.00 | 0.00 | 75 | 1010.6 |
| 20260506043044 | 17 | 54 | 6.4 | 17.7 | 0.00 | 0.00 | 0.00 | 75 | 1010.5 |
| 20260506042529 | 17 | 339 | 4.8 | 17.7 | 0.00 | 0.00 | 0.00 | 75 | 1010.5 |
| 20260506042026 | 17 | 92 | 3.2 | 19.3 | 0.00 | 0.00 | 0.00 | 75 | 1010.3 |
| 20260506041548 | 18 | 44 | 6.4 | 19.3 | 0.00 | 0.00 | 0.00 | 74 | 1010.3 |
| 20260506041027 | 18 | 77 | 3.2 | 11.3 | 0.00 | 0.00 | 0.00 | 74 | 1010.2 |
| 20260506040527 | 18 | 38 | 4.8 | 12.9 | 0.00 | 0.00 | 0.00 | 74 | 1010.1 |
| 20260506040057 | 18 | 26 | 6.4 | 12.9 | 0.00 | 0.00 | 0.00 | 74 | 1009.8 |
| 20260506035527 | 18 | 37 | 3.2 | 19.3 | 0.00 | 0.00 | 0.00 | 74 | 1009.9 |
| 20260506035027 | 18 | 2 | 3.2 | 19.3 | 0.00 | 0.00 | 0.00 | 74 | 1009.7 |
| 20260506034538 | 18 | 161 | 6.4 | 19.3 | 0.00 | 0.00 | 0.00 | 73 | 1009.8 |
| 20260506034026 | 18 | 300 | 4.8 | 14.5 | 0.00 | 0.00 | 0.00 | 73 | 1009.8 |
| 20260506033527 | 19 | 337 | 6.4 | 20.9 | 0.00 | 0.00 | 0.00 | 72 | 1009.7 |
| 20260506033045 | 19 | 36 | 4.8 | 20.9 | 0.00 | 0.00 | 0.00 | 72 | 1009.6 |
| 20260506032527 | 19 | 17 | 4.8 | 14.5 | 0.00 | 0.00 | 0.00 | 72 | 1009.5 |
| 20260506032029 | 20 | 347 | 6.4 | 14.5 | 0.00 | 0.00 | 0.00 | 72 | 1009.4 |
| 20260506031556 | 20 | 37 | 6.4 | 17.7 | 0.00 | 0.00 | 0.00 | 72 | 1009.4 |
| 20260506031030 | 20 | 20 | 8.0 | 17.7 | 0.00 | 0.00 | 0.00 | 72 | 1009.3 |
| 20260506030527 | 20 | 58 | 6.4 | 17.7 | 0.00 | 0.00 | 0.00 | 72 | 1009.0 |
| 20260506030042 | 20 | 39 | 4.8 | 16.1 | 0.00 | 0.00 | 0.00 | 71 | 1009.1 |
| 20260506025531 | 21 | 33 | 8.0 | 16.1 | 0.00 | 0.00 | 0.00 | 71 | 1009.1 |
| 20260506025031 | 21 | 32 | 6.4 | 16.1 | 0.00 | 0.00 | 0.00 | 70 | 1009.0 |
| 20260506024543 | 21 | 46 | 8.0 | 16.1 | 0.00 | 0.00 | 0.00 | 70 | 1008.8 |
| 20260506024031 | 21 | 340 | 4.8 | 12.9 | 0.00 | 0.00 | 0.00 | 70 | 1008.6 |
| 20260506023531 | 21 | 0 | 3.2 | 11.3 | 0.00 | 0.00 | 0.00 | 69 | 1008.5 |
| 20260506023043 | 21 | 29 | 3.2 | 17.7 | 0.00 | 0.00 | 0.00 | 69 | 1008.2 |
| 20260506022532 | 21 | 19 | 4.8 | 17.7 | 0.00 | 0.00 | 0.00 | 69 | 1008.1 |
| 20260506022031 | 21 | 349 | 6.4 | 17.7 | 0.00 | 0.00 | 0.00 | 69 | 1008.1 |
| 20260506021538 | 22 | 20 | 9.7 | 16.1 | 0.00 | 0.00 | 0.00 | 68 | 1007.9 |
| 20260506021033 | 22 | 46 | 4.8 | 11.3 | 0.00 | 0.00 | 0.00 | 69 | 1007.9 |
| 20260506020530 | 22 | 48 | 3.2 | 11.3 | 0.00 | 0.00 | 0.00 | 68 | 1007.4 |
| 20260506020044 | 22 | 49 | 3.2 | 11.3 | 0.00 | 0.00 | 0.00 | 68 | 1007.3 |
| 20260506015532 | 22 | 53 | 4.8 | 11.3 | 0.00 | 0.00 | 0.00 | 67 | 1007.1 |
| 20260506015032 | 22 | 47 | 3.2 | 11.3 | 0.00 | 0.00 | 0.00 | 67 | 1007.3 |
| 20260506014544 | 22 | 328 | 4.8 | 11.3 | 0.00 | 0.00 | 0.00 | 66 | 1007.3 |
| 20260506014031 | 22 | 54 | 1.6 | 8.0 | 0.00 | 0.00 | 0.00 | 66 | 1007.3 |
| 20260506013529 | 23 | 53 | 1.6 | 12.9 | 0.00 | 0.00 | 0.00 | 66 | 1007.3 |
| 20260506013046 | 23 | 37 | 3.2 | 12.9 | 0.00 | 0.00 | 0.00 | 66 | 1007.0 |
| 20260506012530 | 23 | 44 | 3.2 | 12.9 | 0.00 | 0.00 | 0.00 | 65 | 1007.1 |
| 20260506012035 | 23 | 35 | 3.2 | 11.3 | 0.00 | 0.00 | 0.00 | 65 | 1006.8 |
| 20260506011543 | 23 | 0 | 3.2 | 12.9 | 0.00 | 0.00 | 0.00 | 65 | 1006.9 |
| 20260506011032 | 23 | 326 | 1.6 | 12.9 | 0.00 | 0.00 | 0.00 | 65 | 1007.1 |
| 20260506010531 | 23 | 316 | 3.2 | 14.5 | 0.00 | 0.00 | 0.00 | 64 | 1006.8 |
| 20260506010045 | 23 | 330 | 4.8 | 14.5 | 0.00 | 0.00 | 0.00 | 64 | 1006.8 |
| 20260506005532 | 23 | 283 | 4.8 | 12.9 | 0.00 | 0.00 | 0.00 | 63 | 1006.8 |
| 20260506005031 | 23 | 50 | 4.8 | 12.9 | 0.00 | 0.00 | 0.00 | 63 | 1006.7 |
| 20260506004548 | 23 | 53 | 4.8 | 12.9 | 0.00 | 0.00 | 0.00 | 64 | 1006.2 |
| 20260506004032 | 24 | 41 | 3.2 | 9.7 | 0.00 | 0.00 | 0.00 | 64 | 1006.5 |
| 20260506003531 | 24 | 51 | 1.6 | 12.9 | 0.00 | 0.00 | 0.00 | 64 | 1006.5 |
| 20260506003045 | 24 | 39 | 3.2 | 12.9 | 0.00 | 0.00 | 0.00 | 63 | 1006.4 |
| 20260506002532 | 25 | 56 | 4.8 | 16.1 | 0.00 | 0.00 | 0.00 | 63 | 1006.4 |
| 20260506002031 | 25 | 0 | 0.0 | 16.1 | 0.00 | 0.00 | 0.00 | 63 | 1006.2 |
| 20260506001544 | 25 | 335 | 6.4 | 19.3 | 0.00 | 0.00 | 0.00 | 62 | 1006.1 |
| 20260506001030 | 25 | 349 | 6.4 | 22.5 | 0.00 | 0.00 | 0.00 | 61 | 1006.1 |
| 20260506000531 | 26 | 312 | 8.0 | 22.5 | 0.00 | 0.00 | 0.00 | 60 | 1006.0 |
| 20260506000044 | 26 | 16 | 6.4 | 22.5 | 0.00 | 0.00 | 0.00 | 59 | 1005.8 |
| 20260505235531 | 26 | 338 | 4.8 | 22.5 | 0.00 | 0.00 | 0.00 | 59 | 1005.5 |
| 20260505235031 | 26 | 326 | 6.4 | 22.5 | 0.00 | 0.00 | 0.00 | 59 | 1005.5 |
| 20260505234550 | 26 | 20 | 8.0 | 20.9 | 0.00 | 0.00 | 0.00 | 58 | 1005.5 |
| 20260505234032 | 27 | 61 | 6.4 | 20.9 | 0.00 | 0.00 | 0.00 | 58 | 1005.5 |
| 20260505233532 | 27 | 316 | 6.4 | 17.7 | 0.00 | 0.00 | 0.00 | 56 | 1005.5 |
| 20260505233042 | 28 | 46 | 6.4 | 17.7 | 0.00 | 0.00 | 0.00 | 55 | 1005.6 |
| 20260505232531 | 28 | 342 | 8.0 | 17.7 | 0.00 | 0.00 | 0.00 | 54 | 1005.5 |
| 20260505232032 | 29 | 36 | 4.8 | 14.5 | 0.00 | 0.00 | 0.00 | 51 | 1005.2 |
| 20260505231546 | 29 | 319 | 6.4 | 16.1 | 0.00 | 0.00 | 0.00 | 51 | 1005.1 |
| 20260505231031 | 30 | 332 | 8.0 | 16.1 | 0.00 | 0.00 | 0.00 | 50 | 1005.1 |
| 20260505230531 | 30 | 56 | 4.8 | 22.5 | 0.00 | 0.00 | 0.00 | 49 | 1005.1 |
| 20260505230045 | 30 | 46 | 6.4 | 22.5 | 0.00 | 0.00 | 0.00 | 47 | 1004.9 |
| 20260505225532 | 30 | 314 | 8.0 | 22.5 | 0.00 | 0.00 | 0.00 | 46 | 1004.7 |
| 20260505225031 | 30 | 311 | 6.4 | 16.1 | 0.00 | 0.00 | 0.00 | 44 | 1004.6 |
| 20260505224544 | 31 | 21 | 6.4 | 16.1 | 0.00 | 0.00 | 0.00 | 44 | 1004.7 |
| 20260505224032 | 31 | 27 | 8.0 | 16.1 | 0.00 | 0.00 | 0.00 | 42 | 1004.7 |
| 20260505223532 | 32 | 349 | 8.0 | 16.1 | 0.00 | 0.00 | 0.00 | 41 | 1004.7 |
| 20260505223051 | 32 | 15 | 3.2 | 12.9 | 0.00 | 0.00 | 0.00 | 44 | 1004.4 |
| 20260505222533 | 32 | 245 | 1.6 | 12.9 | 0.00 | 0.00 | 0.00 | 44 | 1004.2 |
| 20260505222031 | 33 | 214 | 4.8 | 11.3 | 0.00 | 0.00 | 0.00 | 44 | 1004.3 |
| 20260505221544 | 33 | 264 | 1.6 | 9.7 | 0.00 | 0.00 | 0.00 | 45 | 1004.2 |
| 20260505221028 | 33 | 224 | 1.6 | 14.5 | 0.00 | 0.00 | 0.00 | 43 | 1004.0 |
| 20260505220531 | 33 | 238 | 4.8 | 14.5 | 0.00 | 0.00 | 0.00 | 44 | 1004.1 |
| 20260505220045 | 33 | 264 | 1.6 | 11.3 | 0.00 | 0.00 | 0.00 | 45 | 1004.2 |
| 20260505215532 | 33 | 236 | 1.6 | 16.1 | 0.00 | 0.00 | 0.00 | 45 | 1004.2 |
| 20260505215031 | 33 | 242 | 3.2 | 16.1 | 0.00 | 0.00 | 0.00 | 45 | 1004.3 |
| 20260505214553 | 33 | 226 | 4.8 | 12.9 | 0.00 | 0.00 | 0.00 | 44 | 1004.4 |
| 20260505214032 | 33 | 252 | 0.0 | 11.3 | 0.00 | 0.00 | 0.00 | 46 | 1004.3 |
| 20260505213531 | 33 | 304 | 3.2 | 9.7 | 0.00 | 0.00 | 0.00 | 44 | 1004.3 |
| 20260505213044 | 33 | 0 | 3.2 | 12.9 | 0.00 | 0.00 | 0.00 | 46 | 1004.3 |
| 20260505212531 | 33 | 243 | 4.8 | 14.5 | 0.00 | 0.00 | 0.00 | 47 | 1004.5 |
| 20260505212032 | 32 | 225 | 4.8 | 14.5 | 0.00 | 0.00 | 0.00 | 49 | 1004.4 |
| 20260505211544 | 32 | 248 | 4.8 | 14.5 | 0.00 | 0.00 | 0.00 | 48 | 1004.6 |
| 20260505211029 | 32 | 224 | 4.8 | 14.5 | 0.00 | 0.00 | 0.00 | 48 | 1004.7 |
| 20260505210531 | 32 | 301 | 4.8 | 11.3 | 0.00 | 0.00 | 0.00 | 49 | 1004.7 |
| 20260505210044 | 32 | 264 | 4.8 | 17.7 | 0.00 | 0.00 | 0.00 | 49 | 1004.7 |
| 20260505205533 | 32 | 243 | 6.4 | 17.7 | 0.00 | 0.00 | 0.00 | 50 | 1004.6 |
| 20260505205032 | 32 | 251 | 4.8 | 17.7 | 0.00 | 0.00 | 0.00 | 51 | 1004.8 |
| 20260505204546 | 32 | 181 | 6.4 | 17.7 | 0.00 | 0.00 | 0.00 | 50 | 1004.8 |
| 20260505204031 | 32 | 223 | 3.2 | 16.1 | 0.00 | 0.00 | 0.00 | 51 | 1004.9 |
| 20260505203531 | 32 | 224 | 4.8 | 12.9 | 0.00 | 0.00 | 0.00 | 51 | 1005.0 |
| 20260505203044 | 32 | 231 | 1.6 | 22.5 | 0.00 | 0.00 | 0.00 | 52 | 1005.2 |
| 20260505202531 | 32 | 248 | 8.0 | 22.5 | 0.00 | 0.00 | 0.00 | 52 | 1005.2 |
| 20260505202033 | 32 | 230 | 6.4 | 17.7 | 0.00 | 0.00 | 0.00 | 51 | 1005.2 |
| 20260505201539 | 32 | 219 | 4.8 | 16.1 | 0.00 | 0.00 | 0.00 | 51 | 1005.2 |
| 20260505201032 | 32 | 246 | 3.2 | 17.7 | 0.00 | 0.00 | 0.00 | 50 | 1005.3 |
| 20260505200531 | 32 | 258 | 4.8 | 17.7 | 0.00 | 0.00 | 0.00 | 53 | 1005.3 |
| 20260505200048 | 32 | 218 | 8.0 | 20.9 | 0.00 | 0.00 | 0.00 | 51 | 1005.3 |
| 20260505195534 | 31 | 280 | 4.8 | 20.9 | 0.00 | 0.00 | 0.00 | 53 | 1005.3 |
| 20260505195031 | 32 | 236 | 9.7 | 20.9 | 0.00 | 0.00 | 0.00 | 53 | 1005.4 |
| 20260505194551 | 32 | 198 | 3.2 | 17.7 | 0.00 | 0.00 | 0.00 | 54 | 1005.4 |
| 20260505194028 | 31 | 248 | 8.0 | 17.7 | 0.00 | 0.00 | 0.00 | 53 | 1005.3 |
| 20260505193532 | 31 | 279 | 6.4 | 17.7 | 0.00 | 0.00 | 0.00 | 55 | 1005.5 |
| 20260505193042 | 31 | 247 | 4.8 | 12.9 | 0.00 | 0.00 | 0.00 | 55 | 1005.5 |
| 20260505192533 | 31 | 252 | 4.8 | 16.1 | 0.00 | 0.00 | 0.00 | 54 | 1005.4 |
| 20260505192031 | 31 | 172 | 3.2 | 16.1 | 0.00 | 0.00 | 0.00 | 56 | 1005.4 |
| 20260505191544 | 31 | 188 | 4.8 | 22.5 | 0.00 | 0.00 | 0.00 | 56 | 1005.5 |
| 20260505191035 | 31 | 199 | 4.8 | 22.5 | 0.00 | 0.00 | 0.00 | 56 | 1005.3 |
| 20260505190532 | 30 | 243 | 4.8 | 14.5 | 0.00 | 0.00 | 0.00 | 58 | 1005.4 |
| 20260505190043 | 30 | 235 | 3.2 | 12.9 | 0.00 | 0.00 | 0.00 | 58 | 1005.5 |
| 20260505185532 | 30 | 257 | 4.8 | 20.9 | 0.00 | 0.00 | 0.00 | 58 | 1005.5 |
| 20260505185032 | 30 | 250 | 6.4 | 20.9 | 0.00 | 0.00 | 0.00 | 58 | 1005.5 |
| 20260505184538 | 30 | 243 | 6.4 | 14.5 | 0.00 | 0.00 | 0.00 | 58 | 1005.6 |
| 20260505184031 | 30 | 231 | 1.6 | 12.9 | 0.00 | 0.00 | 0.00 | 60 | 1005.5 |
| 20260505183530 | 30 | 162 | 4.8 | 17.7 | 0.00 | 0.00 | 0.00 | 59 | 1005.6 |
| 20260505183043 | 29 | 174 | 6.4 | 19.3 | 0.00 | 0.00 | 0.00 | 59 | 1005.6 |
| 20260505182530 | 29 | 193 | 8.0 | 19.3 | 0.00 | 0.00 | 0.00 | 60 | 1005.6 |
| 20260505182031 | 30 | 236 | 4.8 | 17.7 | 0.00 | 0.00 | 0.00 | 58 | 1005.7 |
| 20260505181546 | 30 | 299 | 4.8 | 20.9 | 0.00 | 0.00 | 0.00 | 59 | 1005.7 |
| 20260505181031 | 29 | 120 | 6.4 | 20.9 | 0.00 | 0.00 | 0.00 | 59 | 1005.7 |
| 20260505180531 | 29 | 243 | 8.0 | 17.7 | 0.00 | 0.00 | 0.00 | 60 | 1005.7 |
| 20260505180044 | 30 | 221 | 4.8 | 19.3 | 0.00 | 0.00 | 0.00 | 60 | 1005.7 |
| 20260505175532 | 29 | 207 | 6.4 | 19.3 | 0.00 | 0.00 | 0.00 | 60 | 1005.7 |
| 20260505175032 | 29 | 186 | 3.2 | 17.7 | 0.00 | 0.00 | 0.00 | 61 | 1005.6 |
| 20260505174543 | 29 | 112 | 4.8 | 17.7 | 0.00 | 0.00 | 0.00 | 60 | 1005.6 |
| 20260505174031 | 28 | 270 | 6.4 | 17.7 | 0.00 | 0.00 | 0.00 | 62 | 1005.7 |
| 20260505173527 | 29 | 285 | 4.8 | 12.9 | 0.00 | 0.00 | 0.00 | 62 | 1005.7 |
| 20260505173045 | 28 | 171 | 4.8 | 12.9 | 0.00 | 0.00 | 0.00 | 62 | 1005.7 |
| 20260505172527 | 28 | 190 | 4.8 | 14.5 | 0.00 | 0.00 | 0.00 | 63 | 1005.8 |
| 20260505172028 | 28 | 178 | 4.8 | 16.1 | 0.00 | 0.00 | 0.00 | 63 | 1005.9 |
| 20260505171545 | 28 | 191 | 1.6 | 17.7 | 0.00 | 0.00 | 0.00 | 65 | 1005.8 |
| 20260505171032 | 28 | 262 | 3.2 | 17.7 | 0.00 | 0.00 | 0.00 | 65 | 1005.8 |
| 20260505170527 | 27 | 233 | 8.0 | 17.7 | 0.00 | 0.00 | 0.00 | 66 | 1005.9 |
| 20260505170043 | 27 | 217 | 6.4 | 14.5 | 0.00 | 0.00 | 0.00 | 66 | 1005.9 |
| 20260505165527 | 27 | 199 | 3.2 | 16.1 | 0.00 | 0.00 | 0.00 | 66 | 1005.9 |
| 20260505165031 | 27 | 235 | 6.4 | 16.1 | 0.00 | 0.00 | 0.00 | 67 | 1006.0 |
| 20260505164558 | 27 | 256 | 6.4 | 22.5 | 0.00 | 0.00 | 0.00 | 67 | 1006.0 |
| 20260505164033 | 27 | 164 | 6.4 | 22.5 | 0.00 | 0.00 | 0.00 | 67 | 1005.8 |
| 20260505163531 | 27 | 238 | 4.8 | 19.3 | 0.00 | 0.00 | 0.00 | 67 | 1005.8 |
| 20260505163049 | 27 | 82 | 6.4 | 24.1 | 0.00 | 0.00 | 0.00 | 68 | 1005.8 |
| 20260505162534 | 27 | 257 | 8.0 | 24.1 | 0.00 | 0.00 | 0.00 | 68 | 1005.6 |
| 20260505162031 | 27 | 226 | 4.8 | 17.7 | 0.00 | 0.00 | 0.00 | 69 | 1005.7 |
| 20260505161538 | 27 | 266 | 6.4 | 16.1 | 0.00 | 0.00 | 0.00 | 69 | 1005.8 |
| 20260505161031 | 27 | 238 | 4.8 | 14.5 | 0.00 | 0.00 | 0.00 | 69 | 1005.8 |
| 20260505160528 | 26 | 195 | 4.8 | 19.3 | 0.00 | 0.00 | 0.00 | 71 | 1005.8 |
| 20260505153043 | 25 | 165 | 4.8 | 16.1 | 0.00 | 0.00 | 0.00 | 73 | 1005.5 |
| 20260505152531 | 25 | 198 | 4.8 | 24.1 | 0.00 | 0.00 | 0.00 | 73 | 1005.6 |
| 20260505152031 | 25 | 224 | 3.2 | 24.1 | 0.00 | 0.00 | 0.00 | 74 | 1005.7 |
| 20260505151541 | 25 | 241 | 6.4 | 24.1 | 0.00 | 0.00 | 0.00 | 74 | 1005.6 |
| 20260505151033 | 25 | 195 | 4.8 | 14.5 | 0.00 | 0.00 | 0.00 | 75 | 1005.7 |
| 20260505150531 | 25 | 168 | 6.4 | 14.5 | 0.00 | 0.00 | 0.00 | 76 | 1005.8 |
| 20260505140531 | 23 | 240 | 6.4 | 19.3 | 0.00 | 0.00 | 0.00 | 81 | 1005.7 |
| 20260505130105 | 22 | 170 | 4.8 | 16.1 | 0.00 | 0.00 | 0.00 | 84 | 1005.4 |
| 20260505125030 | 22 | 210 | 6.4 | 16.1 | 0.00 | 0.00 | 0.00 | 84 | 1005.2 |
| 20260505124549 | 21 | 168 | 1.6 | 14.5 | 0.00 | 0.00 | 0.00 | 84 | 1005.3 |